Tracking 30970 objects as of 3-Jul-2025
HD Live streaming from Space Station
objects crossing your sky now

DELTA 1 DEB (YO)

Track DELTA 1 DEB (YO) now!
10-day predictions


NORAD ID: 228
Int'l Code: 1962-002C
Perigee: 470.2 km
Apogee: 484.9 km
Inclination: 48.4 °
Period: 94.0 minutes
Semi major axis: 6848 km
RCS: 0.049 m2 (small)
Launch date: February 8, 1962
Source: United States (US)
Launch site: AIR FORCE EASTERN TEST RANGE (AFETR)

Note: This is SATELLITE DEBRIS
Your satellite tracking list
STARLINK-1610
Track 1 satellite(s)




NASA's NSSDC Master Catalog

Two Line Element Set (TLE):
1 00228U 62002C   25183.72278561  .00012684  00000-0  41614-3 0  9999
2 00228  48.4351 344.1318 0010722 291.6901  68.2893 15.31799778389208
Source of the keplerian elements: AFSPC